�������C�����ː����j�^�v���󋵏��
Date,Time,Cs137(Bq/L),Cs134(Bq/L),�S��(Bq/L)
2017/03/09,00:00,0.49,0.025,15
2017/03/09,00:10,0.49,0.037,13
2017/03/09,00:20,0.51,0.042,11
2017/03/09,00:30,0.48,0.051,10
2017/03/09,00:40,0.51,0.045,9.9
2017/03/09,00:50,0.51,0.049,ND
2017/03/09,01:00,0.65,ND,ND
2017/03/09,01:10,0.53,0.036,ND
2017/03/09,01:20,0.53,0.029,10
2017/03/09,01:30,0.63,ND,11
2017/03/09,01:40,0.60,ND,12
2017/03/09,01:50,0.53,0.026,12
2017/03/09,02:00,0.51,0.027,14
2017/03/09,02:10,0.56,ND,15
2017/03/09,02:20,0.51,0.034,13
2017/03/09,02:30,0.50,0.040,9.3
2017/03/09,02:40,0.54,0.045,ND
2017/03/09,02:50,0.53,0.043,11
2017/03/09,03:00,0.53,0.049,ND
2017/03/09,03:10,0.53,0.042,9.5
2017/03/09,03:20,0.52,0.047,10
2017/03/09,03:30,0.53,0.038,13
2017/03/09,03:40,0.52,0.031,12
2017/03/09,03:50,0.53,0.031,9.0
2017/03/09,04:00,0.54,0.033,10
2017/03/09,04:10,0.54,0.035,9.5
2017/03/09,04:20,0.54,0.035,12
2017/03/09,04:30,0.54,0.046,10
2017/03/09,04:40,0.68,ND,11
2017/03/09,04:50,0.55,0.048,13
2017/03/09,05:00,0.68,ND,13
2017/03/09,05:10,0.62,0.047,13
2017/03/09,05:20,0.56,0.045,9.2
2017/03/09,05:30,0.56,0.040,10
2017/03/09,05:40,0.57,0.033,12
2017/03/09,05:50,0.57,0.036,13
2017/03/09,06:00,0.59,0.030,13
2017/03/09,06:10,0.61,0.025,12
2017/03/09,06:20,0.73,ND,16
2017/03/09,06:30,0.73,ND,15
2017/03/09,06:40,0.72,ND,12
2017/03/09,06:50,0.63,0.025,15
2017/03/09,07:00,0.60,0.026,14
2017/03/09,07:10,0.58,0.030,13
2017/03/09,07:20,0.58,0.031,11
2017/03/09,07:30,0.59,0.026,11
2017/03/09,07:40,0.57,0.042,15
2017/03/09,07:50,0.68,ND,13
2017/03/09,08:00,0.69,ND,14
2017/03/09,08:10,0.55,0.058,16
2017/03/09,08:20,0.69,ND,14
2017/03/09,08:30,0.63,0.034,15
2017/03/09,08:40,0.51,0.053,11
2017/03/09,08:50,0.61,ND,9.5
2017/03/09,09:00,0.47,0.052,ND
2017/03/09,09:10,0.53,0.044,ND
2017/03/09,09:20,0.43,0.052,ND
2017/03/09,09:30,0.45,0.044,ND
2017/03/09,09:40,0.48,0.035,12
2017/03/09,09:50,0.49,0.032,14
2017/03/09,10:00,0.50,0.036,13
2017/03/09,10:10,0.53,0.031,12
2017/03/09,10:20,0.55,0.035,12
2017/03/09,10:30,0.67,ND,12
2017/03/09,10:40,0.64,0.030,11
2017/03/09,10:50,0.65,0.035,9.3
2017/03/09,11:00,0.65,0.038,12
2017/03/09,11:10,0.63,0.039,12
2017/03/09,11:20,0.62,0.040,13
2017/03/09,11:30,0.52,0.076,14
2017/03/09,11:40,0.54,0.067,14
2017/03/09,11:50,0.55,0.064,12
2017/03/09,12:00,0.56,0.066,13
2017/03/09,12:10,0.57,0.070,14
2017/03/09,12:20,0.57,0.065,15
2017/03/09,12:30,0.59,0.060,13
2017/03/09,12:40,0.59,0.066,10
2017/03/09,12:50,0.61,0.069,11
2017/03/09,13:00,0.61,0.068,8.9
2017/03/09,13:10,0.65,0.062,ND
2017/03/09,13:20,0.76,0.026,ND
2017/03/09,13:30,0.66,0.062,ND
2017/03/09,13:40,0.80,ND,ND
2017/03/09,13:50,0.77,ND,ND
2017/03/09,14:00,0.75,ND,ND
2017/03/09,14:10,0.72,ND,8.9
2017/03/09,14:20,0.70,ND,9.6
2017/03/09,14:30,0.70,ND,10
2017/03/09,14:40,0.69,ND,13
2017/03/09,14:50,0.60,0.029,14
2017/03/09,15:00,0.60,0.034,14
2017/03/09,15:10,0.66,ND,12
2017/03/09,15:20,0.62,0.028,15
2017/03/09,15:30,0.68,0.031,17
2017/03/09,15:40,0.56,0.048,17
2017/03/09,15:50,0.57,0.033,17
2017/03/09,16:00,0.56,0.041,18
2017/03/09,16:10,0.52,0.049,21
2017/03/09,16:20,0.61,0.049,20
2017/03/09,16:30,0.52,0.054,15
2017/03/09,16:40,0.50,0.049,12
2017/03/09,16:50,0.49,0.058,12
2017/03/09,17:00,0.50,0.053,12
2017/03/09,17:10,0.51,0.050,ND
2017/03/09,17:20,0.51,0.045,ND
2017/03/09,17:30,0.51,0.039,9.0
2017/03/09,17:40,0.53,0.035,12
2017/03/09,17:50,0.53,0.034,12
2017/03/09,18:00,0.51,0.038,9.9
2017/03/09,18:10,0.53,0.035,9.5
2017/03/09,18:20,0.53,0.044,9.2
2017/03/09,18:30,0.64,0.043,9.5
2017/03/09,18:40,0.54,0.043,9.9
2017/03/09,18:50,0.52,0.054,ND
2017/03/09,19:00,0.54,0.054,ND
2017/03/09,19:10,0.55,0.039,10
2017/03/09,19:20,0.54,0.031,ND
2017/03/09,19:30,0.53,0.032,9.5
2017/03/09,19:40,0.58,ND,9.2
2017/03/09,19:50,0.59,ND,11
2017/03/09,20:00,0.55,0.030,13
2017/03/09,20:10,0.54,0.036,10
2017/03/09,20:20,0.65,ND,12
2017/03/09,20:30,0.67,ND,14
2017/03/09,20:40,0.54,0.050,13
2017/03/09,20:50,0.54,0.042,12
2017/03/09,21:00,0.54,0.036,12
2017/03/09,21:10,0.56,0.036,12
2017/03/09,21:20,0.56,0.038,14
2017/03/09,21:30,0.53,0.050,11
2017/03/09,21:40,0.53,0.045,13
2017/03/09,21:50,0.51,0.052,12
2017/03/09,22:00,0.49,0.062,11
2017/03/09,22:10,0.46,0.067,13
2017/03/09,22:20,0.43,0.078,10
2017/03/09,22:30,0.44,0.066,9.9
2017/03/09,22:40,0.43,0.068,9.0
2017/03/09,22:50,0.45,0.058,12
2017/03/09,23:00,0.46,0.054,14
2017/03/09,23:10,0.46,0.048,13
2017/03/09,23:20,0.48,0.038,17
2017/03/09,23:30,0.51,0.030,17
2017/03/09,23:40,0.60,0.025,17
2017/03/09,23:50,0.49,0.035,12
